EW2082 Weather Reports


Display with metric or nautical units.
time (UTC)temp
F
wind
direction
speed
MPH
gust
MPH
rain 1hr
in
rain 24hr
in
rain mn
in
humidity
%
barometer
mb
20260504234004 68 295 6.0 8.0 0.00 0.00 0.00 60 1013.6
20260504233004 70 286 3.0 6.0 0.00 0.00 0.00 58 1013.6
20260504232004 70 16 0.0 3.0 0.00 0.00 0.00 58 1013.5
20260504231005 71 353 1.0 3.0 0.00 0.00 0.00 56 1013.4
20260504224005 72 151 3.0 5.0 0.00 0.00 0.00 55 1013.5
20260504223004 73 164 0.0 5.0 0.00 0.00 0.00 52 1013.6
20260504220006 73 138 4.0 7.0 0.00 0.00 0.00 53 1014.1
20260504215005 72 179 0.0 5.0 0.00 0.00 0.00 56 1014.0
20260504214004 72 181 0.0 4.0 0.00 0.00 0.00 54 1014.3
20260504213004 72 203 5.0 7.0 0.00 0.00 0.00 56 1014.5
20260504212004 73 160 0.0 5.0 0.00 0.00 0.00 56 1014.4
20260504211005 73 43 1.0 7.0 0.00 0.00 0.00 55 1014.5
20260504210005 73 158 0.0 9.0 0.00 0.00 0.00 53 1014.5
20260504205005 73 176 1.0 9.0 0.00 0.00 0.00 54 1014.5
20260504204004 74 167 0.0 6.0 0.00 0.00 0.00 52 1014.5
20260504203005 74 141 5.0 8.0 0.00 0.00 0.00 53 1014.2
20260504202004 74 162 5.0 7.0 0.00 0.00 0.00 52 1014.3
20260504201004 74 172 0.0 6.0 0.00 0.00 0.00 52 1014.3
20260504200007 74 195 0.0 4.0 0.00 0.00 0.00 48 1014.4
20260504195006 74 257 0.0 5.0 0.00 0.00 0.00 48 1014.4
20260504192005 74 239 0.0 2.0 0.00 0.00 0.00 51 1014.5
20260504191004 73 54 1.0 3.0 0.00 0.00 0.00 52 1014.5
20260504190005 72 28 0.0 3.0 0.00 0.00 0.00 51 1014.5
20260504183005 71 104 1.0 4.0 0.00 0.00 0.00 55 1014.8
20260504182005 70 245 0.0 4.0 0.00 0.00 0.00 55 1014.8
20260504181005 71 53 0.0 3.0 0.00 0.00 0.00 50 1014.7
20260504180005 71 193 3.0 6.0 0.00 0.00 0.00 52 1014.7
20260504175005 71 248 3.0 4.0 0.00 0.00 0.00 53 1014.8
20260504174004 70 272 1.0 6.0 0.00 0.00 0.00 54 1014.7
20260504173004 70 138 1.0 4.0 0.00 0.00 0.00 53 1014.6
20260504172004 70 279 0.0 4.0 0.00 0.00 0.00 54 1014.4
20260504171004 70 190 2.0 2.0 0.00 0.00 0.00 55 1014.3
20260504151003 62 244 0.0 2.0 0.00 0.00 0.00 71 1014.1
20260504141004 59 57 0.0 2.0 0.00 0.00 0.00 79 1013.6
20260504082004 59 291 0.0 0.0 0.00 0.00 0.00 80 1013.8
20260504081004 59 254 0.0 0.0 0.00 0.00 0.00 80 1014.3
20260504050004 61 178 0.0 1.0 0.00 0.00 0.00 79 1013.7
20260504045004 61 275 0.0 2.0 0.00 0.00 0.00 79 1013.7
20260504044003 61 359 0.0 1.0 0.00 0.00 0.00 79 1013.5
20260504043003 61 257 0.0 0.0 0.00 0.00 0.00 78 1013.5
20260504042004 61 108 0.0 0.0 0.00 0.00 0.00 78 1013.5
20260504041004 61 4 0.0 1.0 0.00 0.00 0.00 77 1013.3
20260504040004 61 143 0.0 1.0 0.00 0.00 0.00 77 1013.3
20260504035003 61 269 0.0 1.0 0.00 0.00 0.00 76 1013.1
20260504034003 61 296 0.0 2.0 0.00 0.00 0.00 76 1013.2
20260504031004 61 233 0.0 1.0 0.00 0.00 0.00 75 1012.7
20260504030004 62 54 0.0 3.0 0.00 0.00 0.00 75 1012.7
20260504025003 62 44 0.0 1.0 0.00 0.00 0.00 75 1012.7
20260504024004 62 38 0.0 2.0 0.00 0.00 0.00 75 1012.5
20260504023003 62 257 0.0 3.0 0.00 0.00 0.00 74 1012.7
20260504022004 62 229 0.0 2.0 0.00 0.00 0.00 74 1012.6
20260504021004 62 53 0.0 2.0 0.00 0.00 0.00 72 1012.4
20260504020005 63 282 0.0 3.0 0.00 0.00 0.00 72 1012.3
20260504015003 63 11 0.0 2.0 0.00 0.00 0.00 71 1012.3
20260504014003 64 1 0.0 2.0 0.00 0.00 0.00 70 1012.2
20260504013004 65 297 0.0 1.0 0.00 0.00 0.00 68 1012.0
20260504012003 66 245 0.0 3.0 0.00 0.00 0.00 67 1011.9
20260504010005 65 25 0.0 2.0 0.00 0.00 0.00 68 1011.9
20260504005004 65 46 0.0 2.0 0.00 0.00 0.00 68 1011.8
20260504003003 66 105 0.0 1.0 0.00 0.00 0.00 68 1011.8
20260504002003 65 91 0.0 2.0 0.00 0.00 0.00 69 1011.9
20260504001003 66 355 0.0 1.0 0.00 0.00 0.00 70 1011.8
20260504000004 65 242 0.0 3.0 0.00 0.00 0.00 71 1011.5
20260503235004 65 24 0.0 2.0 0.00 0.00 0.00 71 1011.5